TimeCST,TemperatureF,Dew PointF,Humidity,Sea Level PressureIn,VisibilityMPH,Wind Direction,Wind SpeedMPH,Gust SpeedMPH,PrecipitationIn,Events,Conditions,WindDirDegrees,DateUTC
12:52 AM,30.0,23.0,75,30.31,9.0,SSE,5.8,-,N/A,,Clear,150,2013-03-09 06:52:00
1:52 AM,30.9,23.0,72,30.28,9.0,SSE,5.8,-,N/A,,Clear,150,2013-03-09 07:52:00
2:52 AM,30.9,23.0,72,30.25,10.0,SSE,8.1,-,N/A,,Clear,150,2013-03-09 08:52:00
3:52 AM,32.0,24.1,73,30.24,10.0,SE,9.2,-,N/A,,Mostly Cloudy,140,2013-03-09 09:52:00
4:52 AM,32.0,25.0,75,30.24,10.0,SSE,6.9,-,N/A,,Overcast,160,2013-03-09 10:52:00
5:52 AM,33.1,26.1,75,30.24,9.0,SSE,9.2,-,N/A,,Overcast,160,2013-03-09 11:52:00
6:52 AM,33.1,28.0,82,30.25,5.0,SSE,8.1,-,0.00,Rain,Light Rain,160,2013-03-09 12:52:00
7:52 AM,33.1,28.9,85,30.21,6.0,ESE,11.5,-,0.02,Rain,Light Rain,120,2013-03-09 13:52:00
8:52 AM,34.0,30.0,85,30.20,7.0,SSE,9.2,-,0.00,,Overcast,160,2013-03-09 14:52:00
9:52 AM,37.0,28.9,73,30.14,9.0,SSE,15.0,-,N/A,,Overcast,150,2013-03-09 15:52:00
10:52 AM,37.0,28.9,73,30.13,10.0,SSE,16.1,-,0.00,Rain,Light Rain,160,2013-03-09 16:52:00
11:52 AM,37.9,30.0,73,30.09,10.0,SSE,18.4,24.2,0.00,,Overcast,160,2013-03-09 17:52:00
12:52 PM,37.9,30.0,73,30.06,10.0,South,16.1,21.9,N/A,,Partly Cloudy,170,2013-03-09 18:52:00
1:52 PM,39.0,30.0,70,30.02,10.0,SSE,12.7,-,N/A,,Scattered Clouds,160,2013-03-09 19:52:00
2:52 PM,39.9,30.0,68,29.99,10.0,SSE,15.0,-,N/A,,Partly Cloudy,160,2013-03-09 20:52:00
3:52 PM,39.9,30.9,70,29.97,10.0,SSE,13.8,-,N/A,,Overcast,160,2013-03-09 21:52:00
4:52 PM,39.9,32.0,73,29.92,10.0,SSE,12.7,-,0.00,,Overcast,150,2013-03-09 22:52:00
5:52 PM,42.1,32.0,67,29.92,10.0,SSE,11.5,-,N/A,,Mostly Cloudy,150,2013-03-09 23:52:00
6:52 PM,42.1,30.9,65,29.90,10.0,SSE,12.7,-,N/A,,Clear,150,2013-03-10 00:52:00
7:52 PM,42.1,32.0,67,29.88,10.0,SSE,13.8,-,N/A,,Partly Cloudy,160,2013-03-10 01:52:00
8:52 PM,41.0,33.1,73,29.90,10.0,South,8.1,-,N/A,,Overcast,180,2013-03-10 02:52:00
9:52 PM,39.9,33.1,77,29.89,10.0,South,8.1,-,N/A,,Overcast,170,2013-03-10 03:52:00
10:52 PM,39.9,33.1,77,29.87,10.0,SSE,8.1,-,N/A,,Overcast,160,2013-03-10 04:52:00
11:52 PM,39.9,33.1,77,29.84,10.0,SSE,8.1,-,N/A,,Overcast,160,2013-03-10 05:52:00